Weather History for KCSV - September, 2014

Change the Weather History Date:

Monday, September 29, 2014

  Actual Average Record
Temperature  
Mean Temperature 72 °F 62 °F  
Max Temperature 80 °F 73 °F 84 °F (1986)
Min Temperature 62 °F 52 °F 34 °F (1962)
Degree Days  
Heating Degree Days 0    
Month to date heating degree days  
Since 1 July heating degree days  
Cooling Degree Days 6    
Month to date cooling degree days  
Year to date cooling degree days  
Growing Degree Days 22 (Base 50)    
Moisture  
Dew Point 60 °F    
Average Humidity 78    
Maximum Humidity 90    
Minimum Humidity 42    
Precipitation  
Precipitation 0.02 in 0.13 in 1.78 in (1972)
Month to date precipitation 3.75  
Year to date precipitation 41.87  
Sea Level Pressure  
Sea Level Pressure 30.04 in    
Wind  
Wind Speed 1 mph (North)    
Max Wind Speed 9 mph    
Max Gust Speed -    
Visibility 6 miles    
Events Fog , Rain    
T = Trace of Precipitation, MM = Missing Value Source: NWS Daily Summary

Daily Weather History Graph

Daily Weather History Graph

Search for Another Location

Airport or City:

Trip Planner

Search our weather history database for the weather conditions in past years. The results will help you decide how hot, cold, wet, or windy it might be!

Date:

Astronomy

Sep. 29, 2014 Rise Set
Actual Time 6:33 AM CDT 6:26 PM CDT
Civil Twilight 6:08 AM CDT 6:52 PM CDT
Nautical Twilight 5:38 AM CDT 7:22 PM CDT
Astronomical Twilight 5:08 AM CDT 7:51 PM CDT
Moon 11:36 AM CDT (9/29) 10:08 PM CDT (9/29)
Length of Visible Light 12h 44m
Length of Day
11h 53m
Waxing Crescent, 28% of the Moon is Illuminated
Sep 29
Waxing Crescent
Oct 1
First Quarter
Oct 8
Full
Oct 15
Last Quarter
Oct 23
New

Hourly Weather History & Observations

Time (CDT) Temp. Heat Index Dew Point Humidity Pressure Visibility Wind Dir Wind Speed Gust Speed Precip Events Conditions
12:53 AM 64.9 °F - 62.1 °F 90% 30.05 in 7.0 mi Calm Calm - 0.02 in Rain Light Rain
1:53 AM 64.9 °F - 61.0 °F 87% 30.05 in 5.0 mi Calm Calm - 0.00 in   Partly Cloudy
2:23 AM 64.9 °F - 61.0 °F 87% 30.09 in 1.8 mi Calm Calm - N/A   Overcast
2:32 AM 64.9 °F - 61.0 °F 87% 30.09 in 4.0 mi Calm Calm - N/A   Overcast
2:53 AM 64.0 °F - 61.0 °F 90% 30.04 in 8.0 mi Calm Calm - N/A   Mostly Cloudy
3:53 AM 64.9 °F - 61.0 °F 87% 30.03 in 7.0 mi Calm Calm - N/A   Overcast
4:39 AM 64.0 °F - 60.1 °F 87% 30.08 in 1.8 mi Calm Calm - N/A   Overcast
4:53 AM 64.0 °F - 60.1 °F 87% 30.04 in 2.5 mi Calm Calm - N/A   Overcast
5:01 AM 64.0 °F - 60.1 °F 87% 30.08 in 3.0 mi Calm Calm - N/A   Overcast
5:04 AM 64.0 °F - 60.1 °F 87% 30.08 in 1.8 mi Calm Calm - N/A   Overcast
5:15 AM 64.0 °F - 60.1 °F 87% 30.08 in 3.0 mi Calm Calm - N/A   Overcast
5:53 AM 64.0 °F - 60.1 °F 87% 30.04 in 2.0 mi Calm Calm - N/A   Overcast
6:08 AM 64.0 °F - 60.1 °F 87% 30.09 in 2.0 mi Calm Calm - N/A   Overcast
6:15 AM 64.0 °F - 60.1 °F 87% 30.09 in 1.0 mi Calm Calm - N/A   Overcast
6:23 AM 64.0 °F - 60.1 °F 87% 30.09 in 2.0 mi Calm Calm - N/A   Overcast
6:34 AM 64.0 °F - 60.1 °F 87% 30.09 in 4.0 mi Calm Calm - N/A   Overcast
6:53 AM 64.0 °F - 60.1 °F 87% 30.04 in 4.0 mi Calm Calm - N/A   Scattered Clouds
6:58 AM 64.0 °F - 60.1 °F 87% 30.09 in 1.5 mi Calm Calm - N/A   Scattered Clouds
7:03 AM 64.0 °F - 60.1 °F 87% 30.09 in 0.5 mi Calm Calm - N/A Fog Fog
7:19 AM 63.0 °F - 60.1 °F 90% 30.09 in 1.0 mi Calm Calm - N/A   Clear
7:25 AM 63.0 °F - 59.0 °F 87% 30.09 in 3.0 mi Calm Calm - N/A   Clear
7:53 AM 66.0 °F - 62.1 °F 87% 30.04 in 7.0 mi Calm Calm - N/A   Clear
8:53 AM 69.1 °F - 62.1 °F 78% 30.05 in 10.0 mi Calm Calm - N/A   Clear
9:53 AM 72.0 °F - 62.1 °F 71% 30.04 in 10.0 mi Variable 3.5 mph - N/A   Partly Cloudy
10:08 AM 72.0 °F - 61.0 °F 68% 30.09 in 10.0 mi ENE 4.6 mph - N/A   Mostly Cloudy
10:37 AM 73.0 °F - 61.0 °F 66% 30.09 in 10.0 mi NNE 4.6 mph - N/A   Scattered Clouds
10:53 AM 73.9 °F - 61.0 °F 64% 30.03 in 10.0 mi Variable 5.8 mph - N/A   Clear
11:53 AM 73.0 °F - 60.1 °F 64% 30.02 in 10.0 mi NNE 9.2 mph - N/A   Scattered Clouds
12:53 PM 75.0 °F - 57.9 °F 55% 30.00 in 10.0 mi NNE 6.9 mph - N/A   Mostly Cloudy
1:53 PM 79.0 °F - 55.9 °F 45% 29.97 in 10.0 mi North - - N/A   Mostly Cloudy
2:53 PM 80.1 °F 80.1 °F 55.0 °F 42% 29.95 in 10.0 mi Variable 5.8 mph - N/A   Scattered Clouds
3:53 PM 79.0 °F - 55.0 °F 44% 29.94 in 10.0 mi NNW 9.2 mph - N/A   Clear
4:53 PM 79.0 °F - 55.0 °F 44% 29.93 in 10.0 mi North 6.9 mph - N/A   Clear
5:53 PM 75.9 °F - 57.9 °F 54% 29.94 in 10.0 mi North 3.5 mph - N/A   Clear
6:53 PM 68.0 °F - 59.0 °F 73% 29.96 in 10.0 mi Calm Calm - N/A   Clear
7:53 PM 64.9 °F - 59.0 °F 81% 29.97 in 10.0 mi Calm Calm - N/A   Clear
8:53 PM 64.0 °F - 59.0 °F 84% 29.98 in 10.0 mi Calm Calm - N/A   Clear
9:53 PM 63.0 °F - 57.9 °F 84% 29.97 in 10.0 mi Calm Calm - N/A   Clear
10:53 PM 63.0 °F - 57.9 °F 84% 29.96 in 8.0 mi Calm Calm - N/A   Clear
11:53 PM 62.1 °F - 57.0 °F 84% 29.96 in 10.0 mi WSW 3.5 mph - N/A   Clear